#timestamp,LO_Frequency,Hit,StdDev 
1510570815.5,286046994.0,N
1510570835.3,286046993.8,N
1510570855.1,286046994.9,N
1510570875.9,286046995.7,N
1510570895.7,286046994.8,N
1510570915.5,286046994.5,N
1510570935.4,286046992.6,N
1510570955.2,286046994.3,N
1510570975.0,286046988.8,Y
1510570975.9,286046988.8,P
1510570995.8,286046990.5,N
1510571015.6,286046990.5,N
1510571035.4,286046992.7,N
1510571055.3,286046992.8,N
1510571075.1,286046992.2,N
1510571076.0,286046992.2,Y
1510571095.8,286046998.8,P
1510571115.7,286046997.6,N
1510571135.5,286046996.3,N
1510571155.3,286046999.6,N
1510571175.1,286046997.2,N
1510571195.9,286046998.4,N
1510571215.7,286046999.8,N
1510571235.5,286047001.6,N
1510571255.4,286047003.1,N
1510571275.2,286047002.4,N
1510571295.0,286047001.2,N
1510571295.9,286047001.2,N
1510571315.8,286046998.1,N
1510571335.6,286046995.1,N
1510571355.4,286046997.3,N
1510571375.3,286046996.1,N
1510571395.1,286046995.7,N
1510571396.0,286046995.7,N
1510571415.8,286046995.9,N
1510571435.7,286046998.5,N
1510571455.5,286046998.3,N
1510571475.3,286047000.7,N
1510571495.1,286047002.3,N
1510571515.9,286047000.7,N
1510571535.7,286047002.5,N
1510571555.5,286047002.0,N
1510571575.4,286047001.0,N
1510571595.2,286047000.5,N
1510571615.0,286047000.5,N
1510571615.9,286047000.5,N
1510571635.8,286047000.8,N
1510571655.6,286047000.5,N
1510571675.4,286047000.8,N
1510571695.3,286047000.5,N
1510571715.1,286047000.8,N
1510571716.0,286047000.8,N
1510571735.8,286046999.5,N
1510571755.6,286047000.9,N
1510571775.5,286047000.7,N
1510571795.3,286047004.4,N
1510571815.1,286047000.4,N
1510571835.9,286047000.3,N
1510571855.7,286046998.7,N
1510571875.5,286046998.9,N
1510571895.4,286046996.5,N
1510571915.2,286047000.2,N
1510571935.0,286046999.8,N
1510571935.9,286046999.8,N
1510571955.8,286047002.7,N
1510571975.6,286047003.1,N
1510571995.4,286047004.2,N
1510572015.3,286047002.6,N
1510572035.1,286047003.8,N
1510572036.0,286047003.8,N
1510572055.8,286047002.6,N
1510572075.7,286047002.6,N
1510572095.5,286047000.8,N
1510572115.3,286046997.6,N
1510572135.1,286046997.3,N
1510572155.9,286046998.3,N
1510572175.7,286046999.9,N
1510572195.7,286047002.2,N
1510572215.5,286046998.1,N
1510572235.3,286046999.7,N
1510572255.2,286046997.2,N
1510572275.9,286047001.6,N
1510572295.7,286047004.6,N
1510572315.6,286047001.7,N
1510572335.4,286047000.3,N
1510572355.2,286046999.5,N
1510572375.1,286046997.8,N
1510572376.0,286046997.8,N
1510572395.8,286047000.6,N
1510572415.6,286046996.6,N
1510572435.4,286047000.4,N
1510572455.3,286046999.8,N
1510572475.1,286047000.6,N
1510572495.8,286047000.0,N
1510572515.7,286047000.3,N
1510572535.5,286047000.8,N
1510572555.3,286047003.8,N
1510572575.2,286047006.9,Y
1510572595.0,286047005.0,P
1510572595.9,286047005.0,N
1510572615.7,286047003.5,N
1510572635.6,286047004.7,N
1510572655.4,286047006.2,Y
1510572675.2,286047004.4,P
1510572695.1,286047002.2,P
1510572696.0,286047002.2,N
1510572715.8,286047002.8,N
1510572735.6,286047003.2,Y
1510572755.5,286046999.8,P
1510572775.3,286047002.1,N
1510572795.1,286047002.2,N
1510572815.9,286047003.9,Y
1510572835.7,286047003.0,P
1510572855.5,286047003.2,P
1510572875.4,286047005.0,P
1510572895.2,286047005.2,Y
1510572915.0,286047001.4,P
1510572915.9,286047001.4,N
1510572935.8,286047000.3,N
1510572955.6,286047004.4,Y
1510572975.4,286047001.8,P
1510572995.3,286047000.8,P
1510573015.1,286047000.3,N
1510573035.8,286046998.2,Y
1510573055.7,286046996.2,P
1510573075.5,286046997.3,N
1510573095.3,286046997.9,N
1510573115.2,286046998.9,N
1510573135.9,286047001.4,N
1510573155.7,286047000.7,N
1510573175.6,286047001.2,N
1510573195.4,286047001.4,N
1510573215.2,286047007.0,Y
1510573235.1,286047006.5,P
1510573236.0,286047006.5,N
1510573255.8,286047004.9,N
1510573275.6,286047005.7,N
1510573295.5,286047003.8,N
1510573315.3,286047000.7,N
1510573335.1,286047005.9,N
1510573355.9,286047008.9,Y
1510573375.7,286047006.0,P
1510573395.5,286047001.5,N
1510573415.4,286047003.3,N
1510573435.2,286047002.9,N
1510573455.0,286047002.0,N
1510573455.9,286047002.0,N
1510573475.8,286047002.6,N
1510573495.6,286046999.6,N
1510573515.4,286046995.0,N
1510573535.2,286046998.2,N
1510573555.1,286047001.1,N
1510573556.0,286047001.1,N
1510573575.8,286046998.9,N
1510573595.6,286046999.6,N
1510573615.5,286046999.5,N
1510573635.3,286046998.7,N
1510573655.1,286046999.2,N
1510573675.9,286046999.4,N
1510573695.7,286046996.6,N
1510573715.5,286046998.5,N
1510573735.4,286046997.1,N
1510573755.2,286046999.3,N
1510573775.0,286047000.6,N
1510573775.9,286047000.6,N
1510573795.8,286047000.8,N
1510573815.6,286046997.2,N
1510573835.4,286046999.4,N
1510573855.3,286046998.1,N
1510573875.1,286047000.7,N
1510573876.0,286047000.7,N
1510573895.8,286046998.4,N
1510573915.6,286046998.6,N
1510573935.5,286047000.4,N
1510573955.3,286047000.1,N
1510573975.1,286046997.1,N
1510573995.9,286046997.5,N
1510574015.7,286046996.8,N
1510574035.5,286046997.7,N
1510574055.4,286046995.8,N
1510574075.2,286046993.9,Y
1510574095.0,286046997.8,P
1510574095.9,286046997.8,P
1510574115.8,286047001.2,N
1510574135.6,286046999.7,N
1510574155.4,286047001.4,N
1510574175.3,286047001.4,N
1510574195.1,286047001.6,N
1510574196.0,286047001.6,N
1510574215.8,286047001.5,N
1510574235.7,286047004.0,N
1510574255.5,286047003.7,N
1510574275.3,286047003.2,N
1510574295.2,286047006.0,Y
1510574315.9,286047001.9,P
1510574335.7,286047004.7,P
1510574355.6,286047011.3,P
1510574375.4,286047016.7,Y
1510574395.2,286047008.2,P
